Orbital Elements
Epoch 2024 Mar. 31.0 TT = JDT 2460400.5
T 2024 May 27.14154 TT Rudenko
q 2.5100869 (2000.0) P Q
n 0.14560147 Peri. 255.79438 -0.67288875 +0.73835738
a 3.5784275 Node 331.75208 -0.63646769 -0.60904760
e 0.2985503 Incl. 5.48838 -0.37700082 -0.28963667
P 6.77
>From 140 observations 2010 Mar. 14-2024 Feb. 19, mean residual 0".6.
|